Weather History for Aktion, Greece

Change the Weather History Date:

Thursday, August 22, 2013

  Actual Average Record
Temperature  
Mean Temperature 82 °F -  
Max Temperature 92 °F 79 °F 96 °F (2011)
Min Temperature 73 °F 65 °F 66 °F (2005)
Cooling Degree Days 18    
Growing Degree Days 32 (Base 50)    
Moisture  
Dew Point 57 °F    
Average Humidity 44    
Maximum Humidity 83    
Minimum Humidity 17    
Precipitation  
Precipitation 0.00 in - - ()
Sea Level Pressure  
Sea Level Pressure 29.85 in    
Wind  
Wind Speed 6 mph ()    
Max Wind Speed 16 mph    
Max Gust Speed -    
Visibility 6.2 miles    
Events      
Averages and records for this station are not official NWS values.
T = Trace of Precipitation, MM = Missing Value Source: Averaged Metar Reports

Daily Weather History Graph

Daily Weather History Graph

Search for Another Location

Airport:

Trip Planner

Search our weather history database for the weather conditions in past years. The results will help you decide how hot, cold, wet, or windy it might be!

Date:

Astronomy

Aug. 22, 2013 Rise Set
Actual Time 6:56 AM EEST 8:22 PM EEST
Civil Twilight 6:28 AM EEST 8:50 PM EEST
Nautical Twilight 5:55 AM EEST 9:23 PM EEST
Astronomical Twilight 5:19 AM EEST 9:58 PM EEST
Moon 8:57 PM EEST (8/22) 8:23 AM EEST (8/22)
Length of Visible Light 14h 21m
Length of Day
13h 25m
Full, 98% of the Moon is Illuminated
Aug 22
Full
Aug 28
Last Quarter
Sep 5
New
Sep 12
First Quarter
Sep 19
Full

Hourly Weather History & Observations

Time (EEST) Temp. Heat Index Dew Point Humidity Pressure Visibility Wind Dir Wind Speed Gust Speed Precip Events Conditions
12:50 AM 75.2 °F - 48.2 °F 38% 29.89 in 6.2 mi ENE 3.5 mph - N/A   Scattered Clouds
1:50 AM 80.6 °F - 51.8 °F 37% 29.86 in 6.2 mi East 10.4 mph - N/A   Scattered Clouds
2:50 AM 78.8 °F - 51.8 °F 39% 29.86 in 6.2 mi ESE 5.8 mph - N/A   Scattered Clouds
3:00 AM 79 °F - 52 °F 29% 29.88 in 6 mi ESE 5.8 mph - -   Scattered Clouds
3:50 AM 73.4 °F - 51.8 °F 47% 29.86 in 6.2 mi East 6.9 mph - N/A   Scattered Clouds
4:50 AM 77.0 °F - 50.0 °F 39% 29.86 in - ENE 8.1 mph - N/A   Clear
5:50 AM 73.4 °F - 59.0 °F 61% 29.83 in - East 5.8 mph - N/A   Clear
6:20 AM 73.4 °F - 59.0 °F 61% 29.83 in 6.2 mi ENE 6.9 mph - N/A   Scattered Clouds
6:50 AM 73.4 °F - 59.0 °F 61% 29.86 in 6.2 mi ESE 4.6 mph - N/A   Scattered Clouds
7:20 AM 73.4 °F - 60.8 °F 65% 29.86 in 6.2 mi NE 6.9 mph - N/A   Scattered Clouds
7:50 AM 77.0 °F - 60.8 °F 57% 29.86 in 6.2 mi NE 5.8 mph - N/A   Partly Cloudy
8:20 AM 80.6 °F 80.8 °F 57.2 °F 45% 29.86 in 6.2 mi ENE 5.8 mph - N/A   Partly Cloudy
8:50 AM 82.4 °F 81.7 °F 55.4 °F 39% 29.86 in 6.2 mi NE 6.9 mph - N/A   Partly Cloudy
9:20 AM 82.4 °F - 51.8 °F 35% 29.86 in 6.2 mi East 9.2 mph - N/A   Partly Cloudy
9:50 AM 84.2 °F 82.8 °F 53.6 °F 35% 29.86 in 6.2 mi NE 6.9 mph - N/A   Partly Cloudy
10:20 AM 84.2 °F 82.8 °F 53.6 °F 35% 29.86 in 6.2 mi East 6.9 mph - N/A   Partly Cloudy
10:50 AM 86.0 °F 84.2 °F 53.6 °F 33% 29.86 in 6.2 mi East 4.6 mph - N/A   Partly Cloudy
11:20 AM 89.6 °F - 50.0 °F 26% 29.86 in 6.2 mi Calm Calm - N/A   Partly Cloudy
11:50 AM 89.6 °F - 46.4 °F 22% 29.86 in 6.2 mi Calm Calm - N/A   Partly Cloudy
12:20 PM 89.6 °F - 46.4 °F 22% 29.86 in 6.2 mi Calm Calm - N/A   Partly Cloudy
12:50 PM 91.4 °F - 46.4 °F 21% 29.86 in 6.2 mi Calm Calm - N/A   Partly Cloudy
1:20 PM 91.4 °F - 44.6 °F 20% 29.86 in 6.2 mi Calm Calm - N/A   Partly Cloudy
1:50 PM 91.4 °F - 42.8 °F 18% 29.86 in 6.2 mi Calm Calm - N/A   Partly Cloudy
2:20 PM 93.2 °F - 42.8 °F 17% 29.83 in 6.2 mi Calm Calm - N/A   Partly Cloudy
2:50 PM 93.2 °F - 42.8 °F 17% 29.83 in 6.2 mi Calm Calm - N/A   Partly Cloudy
3:20 PM 91.4 °F 89.1 °F 53.6 °F 28% 29.83 in 6.2 mi Calm Calm - N/A   Partly Cloudy
3:50 PM 87.8 °F 87.1 °F 59.0 °F 38% 29.83 in 6.2 mi NW 12.7 mph - N/A   Partly Cloudy
4:20 PM 87.8 °F 87.6 °F 60.8 °F 40% 29.83 in 6.2 mi NW 12.7 mph - N/A   Partly Cloudy
4:50 PM 86.0 °F 86.6 °F 62.6 °F 45% 29.83 in 6.2 mi NW 15.0 mph - N/A   Partly Cloudy
5:20 PM 86.0 °F 86.6 °F 62.6 °F 45% 29.83 in 6.2 mi NW 16.1 mph - N/A   Partly Cloudy
5:50 PM 86.0 °F 88.2 °F 66.2 °F 51% 29.83 in 6.2 mi NNW 12.7 mph - N/A   Partly Cloudy
6:20 PM 84.2 °F 87.3 °F 68.0 °F 58% 29.83 in 6.2 mi NNW 12.7 mph - N/A   Partly Cloudy
6:50 PM 84.2 °F 85.6 °F 64.4 °F 51% 29.83 in 6.2 mi NW 13.8 mph - N/A   Partly Cloudy
7:20 PM 84.2 °F 85.6 °F 64.4 °F 51% 29.83 in 6.2 mi NW 11.5 mph - N/A   Scattered Clouds
7:50 PM 82.4 °F 84.6 °F 66.2 °F 58% 29.83 in 6.2 mi NW 10.4 mph - N/A   Scattered Clouds
8:20 PM 82.4 °F 85.4 °F 68.0 °F 62% 29.83 in 6.2 mi WNW 9.2 mph - N/A   Scattered Clouds
8:50 PM 80.6 °F 83.9 °F 69.8 °F 70% 29.83 in 6.2 mi NW 8.1 mph - N/A   Scattered Clouds
9:00 PM 81 °F - 69 °F 60% 29.85 in 6 mi NW 8.1 mph - -   Scattered Clouds
9:50 PM 80.6 °F 85.4 °F 73.4 °F 79% 29.86 in 6.2 mi WNW 6.9 mph - N/A   Scattered Clouds
10:50 PM 80.6 °F 84.6 °F 71.6 °F 74% 29.89 in 6.2 mi WSW 6.9 mph - N/A   Scattered Clouds
11:50 PM 78.8 °F - 73.4 °F 83% 29.89 in 6.2 mi SW 5.8 mph - N/A   Partly Cloudy